| time (UTC) | temp F | wind direction | speed MPH | gust MPH | rain 1hr in | rain 24hr in | rain mn in | humidity % | barometer mb |
| 20260902173458 | 69 | 50 | 1.0 | 4.0 | 0.05 | 0.07 | 0.05 | 98 | 1020.3 |
| 20260902172959 | 69 | 50 | 1.0 | 4.0 | 0.05 | 0.07 | 0.05 | 98 | 1020.2 |
| 20260902172458 | 69 | 50 | 0.0 | 2.0 | 0.04 | 0.06 | 0.04 | 98 | 1020.2 |
| 20260902172001 | 69 | 50 | 0.0 | 0.0 | 0.04 | 0.06 | 0.04 | 98 | 1020.4 |
| 20260902171459 | 68 | 50 | 1.0 | 4.0 | 0.04 | 0.06 | 0.04 | 98 | 1020.5 |
| 20260902170958 | 68 | 50 | 1.0 | 4.0 | 0.03 | 0.05 | 0.03 | 98 | 1020.4 |
| 20260902165959 | 68 | 50 | 1.0 | 5.0 | 0.02 | 0.04 | 0.02 | 98 | 1020.5 |
| 20260902165459 | 68 | 50 | 2.0 | 5.0 | 0.02 | 0.04 | 0.02 | 98 | 1020.5 |
| 20260902164958 | 68 | 50 | 3.0 | 9.0 | 0.01 | 0.03 | 0.01 | 98 | 1020.5 |
| 20260902164459 | 69 | 50 | 5.0 | 9.0 | 0.01 | 0.03 | 0.01 | 98 | 1020.4 |
| 20260902163958 | 69 | 50 | 5.0 | 11.0 | 0.01 | 0.03 | 0.01 | 98 | 1019.9 |
| 20260902163458 | 69 | 50 | 4.0 | 11.0 | 0.00 | 0.02 | 0.00 | 98 | 1020.1 |
| 20260902163000 | 69 | 50 | 3.0 | 6.0 | 0.00 | 0.02 | 0.00 | 98 | 1020.2 |
| 20260902162458 | 69 | 50 | 2.0 | 4.0 | 0.00 | 0.02 | 0.00 | 98 | 1020.5 |
| 20260902161958 | 69 | 50 | 2.0 | 5.0 | 0.00 | 0.02 | 0.00 | 99 | 1020.5 |
| 20260902161459 | 69 | 50 | 1.0 | 5.0 | 0.00 | 0.02 | 0.00 | 98 | 1020.5 |
| 20260902160958 | 69 | 50 | 0.0 | 4.0 | 0.00 | 0.02 | 0.00 | 99 | 1020.7 |
| 20260902160458 | 69 | 50 | 0.0 | 3.0 | 0.00 | 0.02 | 0.00 | 99 | 1020.8 |
| 20260902155959 | 69 | 50 | 1.0 | 4.0 | 0.00 | 0.02 | 0.00 | 99 | 1020.7 |
| 20260902155458 | 69 | 50 | 1.0 | 4.0 | 0.00 | 0.02 | 0.00 | 98 | 1020.7 |
| 20260902154958 | 69 | 50 | 0.0 | 2.0 | 0.00 | 0.02 | 0.00 | 99 | 1020.7 |
| 20260902154459 | 69 | 50 | 1.0 | 3.0 | 0.00 | 0.02 | 0.00 | 99 | 1020.7 |
| 20260902153958 | 69 | 50 | 2.0 | 5.0 | 0.00 | 0.02 | 0.00 | 99 | 1020.7 |
| 20260902153458 | 68 | 50 | 3.0 | 6.0 | 0.00 | 0.02 | 0.00 | 99 | 1020.5 |
| 20260902152959 | 68 | 50 | 3.0 | 6.0 | 0.00 | 0.02 | 0.00 | 99 | 1020.5 |
| 20260902152458 | 68 | 50 | 2.0 | 5.0 | 0.00 | 0.02 | 0.00 | 99 | 1020.5 |
| 20260902151958 | 68 | 50 | 2.0 | 5.0 | 0.00 | 0.02 | 0.00 | 99 | 1020.4 |
| 20260902151459 | 68 | 50 | 2.0 | 5.0 | 0.00 | 0.02 | 0.00 | 99 | 1020.3 |
| 20260902150958 | 68 | 50 | 2.0 | 5.0 | 0.00 | 0.02 | 0.00 | 99 | 1020.3 |
| 20260902150459 | 68 | 50 | 1.0 | 5.0 | 0.00 | 0.02 | 0.00 | 99 | 1020.5 |
| 20260902145959 | 68 | 50 | 0.0 | 3.0 | 0.00 | 0.02 | 0.00 | 99 | 1020.5 |
| 20260902144958 | 68 | 50 | 1.0 | 4.0 | 0.00 | 0.02 | 0.00 | 99 | 1020.5 |
| 20260902144459 | 68 | 50 | 2.0 | 5.0 | 0.00 | 0.02 | 0.00 | 99 | 1020.4 |
| 20260902143958 | 68 | 50 | 1.0 | 5.0 | 0.00 | 0.02 | 0.00 | 99 | 1020.3 |
| 20260902143458 | 68 | 50 | 2.0 | 4.0 | 0.00 | 0.02 | 0.00 | 99 | 1020.3 |
| 20260902142959 | 68 | 50 | 2.0 | 5.0 | 0.00 | 0.02 | 0.00 | 99 | 1020.4 |
| 20260902142458 | 68 | 50 | 1.0 | 5.0 | 0.00 | 0.02 | 0.00 | 99 | 1020.5 |
| 20260902141959 | 68 | 50 | 1.0 | 3.0 | 0.00 | 0.02 | 0.00 | 99 | 1020.5 |
| 20260902141459 | 68 | 50 | 2.0 | 4.0 | 0.00 | 0.02 | 0.00 | 99 | 1020.6 |
| 20260902140958 | 68 | 50 | 3.0 | 5.0 | 0.00 | 0.02 | 0.00 | 98 | 1020.7 |
| 20260902140458 | 68 | 50 | 2.0 | 5.0 | 0.00 | 0.02 | 0.00 | 99 | 1020.6 |
| 20260902135959 | 68 | 50 | 2.0 | 5.0 | 0.00 | 0.02 | 0.00 | 99 | 1020.6 |
| 20260902135458 | 68 | 50 | 2.0 | 4.0 | 0.00 | 0.02 | 0.00 | 99 | 1020.5 |
| 20260902134459 | 68 | 50 | 2.0 | 5.0 | 0.00 | 0.02 | 0.00 | 99 | 1020.3 |
| 20260902133958 | 68 | 50 | 2.0 | 4.0 | 0.00 | 0.02 | 0.00 | 99 | 1020.2 |
| 20260902133458 | 68 | 50 | 3.0 | 6.0 | 0.00 | 0.02 | 0.00 | 99 | 1020.2 |
| 20260902132959 | 67 | 50 | 2.0 | 6.0 | 0.00 | 0.02 | 0.00 | 99 | 1020.1 |
| 20260902132459 | 67 | 50 | 2.0 | 5.0 | 0.00 | 0.02 | 0.00 | 99 | 1020.1 |
| 20260902131958 | 67 | 50 | 2.0 | 5.0 | 0.00 | 0.02 | 0.00 | 99 | 1020.0 |
| 20260902131459 | 67 | 50 | 2.0 | 5.0 | 0.00 | 0.02 | 0.00 | 99 | 1020.0 |
| 20260902130958 | 67 | 50 | 3.0 | 6.0 | 0.00 | 0.02 | 0.00 | 98 | 1020.0 |
| 20260902130458 | 67 | 50 | 3.0 | 6.0 | 0.00 | 0.02 | 0.00 | 98 | 1020.1 |
| 20260902125458 | 67 | 50 | 3.0 | 6.0 | 0.00 | 0.02 | 0.00 | 99 | 1019.9 |
| 20260902124958 | 67 | 50 | 3.0 | 6.0 | 0.00 | 0.02 | 0.00 | 99 | 1019.8 |
| 20260902124459 | 67 | 50 | 3.0 | 5.0 | 0.00 | 0.02 | 0.00 | 99 | 1019.7 |
| 20260902123958 | 67 | 50 | 3.0 | 5.0 | 0.00 | 0.02 | 0.00 | 99 | 1019.7 |
| 20260902122959 | 67 | 50 | 2.0 | 9.0 | 0.00 | 0.02 | 0.00 | 99 | 1019.8 |
| 20260902121459 | 67 | 50 | 4.0 | 8.0 | 0.00 | 0.02 | 0.00 | 99 | 1019.8 |
| 20260902120958 | 67 | 50 | 5.0 | 11.0 | 0.00 | 0.02 | 0.00 | 99 | 1019.6 |
| 20260902120458 | 67 | 50 | 5.0 | 11.0 | 0.00 | 0.02 | 0.00 | 99 | 1019.5 |
| 20260902115959 | 0 | 0.0 | 0.0 | 0.00 | 0.02 | 0.00 | 1019.5 | ||
| 20260902115458 | 0 | 0.0 | 0.0 | 0.00 | 0.02 | 0.00 | 1019.5 | ||
| 20260902114958 | 0 | 0.0 | 0.0 | 0.00 | 0.02 | 0.00 | 1019.6 | ||
| 20260902114459 | 0 | 0.0 | 0.0 | 0.00 | 0.02 | 0.00 | 1019.5 | ||
| 20260902113958 | 0 | 0.0 | 0.0 | 0.00 | 0.02 | 0.00 | 1019.5 | ||
| 20260902112959 | 0 | 0.0 | 0.0 | 0.00 | 0.02 | 0.00 | 1019.4 | ||
| 20260902112458 | 0 | 0.0 | 0.0 | 0.00 | 0.02 | 0.00 | 1019.4 | ||
| 20260902111958 | 0 | 0.0 | 0.0 | 0.00 | 0.02 | 0.00 | 1019.4 | ||
| 20260902111459 | 0 | 0.0 | 0.0 | 0.00 | 0.02 | 0.00 | 1019.4 | ||
| 20260902110958 | 0 | 0.0 | 0.0 | 0.00 | 0.02 | 0.00 | 1019.3 | ||
| 20260902110458 | 0 | 0.0 | 0.0 | 0.00 | 0.02 | 0.00 | 1019.3 | ||
| 20260902105959 | 0 | 0.0 | 0.0 | 0.00 | 0.02 | 0.00 | 1019.3 | ||
| 20260902104958 | 0 | 0.0 | 0.0 | 0.00 | 0.02 | 0.00 | 1019.2 | ||
| 20260902104459 | 0 | 0.0 | 0.0 | 0.00 | 0.02 | 0.00 | 1019.3 | ||
| 20260902103458 | 0 | 0.0 | 0.0 | 0.00 | 0.02 | 0.00 | 1019.3 | ||
| 20260902103000 | 0 | 0.0 | 0.0 | 0.00 | 0.02 | 0.00 | 1019.2 | ||
| 20260902102458 | 0 | 0.0 | 0.0 | 0.00 | 0.02 | 0.00 | 1019.2 | ||
| 20260902101958 | 0 | 0.0 | 0.0 | 0.00 | 0.02 | 0.00 | 1019.1 | ||
| 20260902101459 | 0 | 0.0 | 0.0 | 0.00 | 0.02 | 0.00 | 1019.1 | ||
| 20260902100958 | 0 | 0.0 | 0.0 | 0.00 | 0.02 | 0.00 | 1019.1 | ||
| 20260902100458 | 0 | 0.0 | 0.0 | 0.00 | 0.02 | 0.00 | 1019.0 | ||
| 20260902095959 | 0 | 0.0 | 0.0 | 0.00 | 0.02 | 0.00 | 1018.9 | ||
| 20260902095458 | 0 | 0.0 | 0.0 | 0.00 | 0.02 | 0.00 | 1018.9 | ||
| 20260902094958 | 0 | 0.0 | 0.0 | 0.00 | 0.02 | 0.00 | 1018.8 | ||
| 20260902094459 | 0 | 0.0 | 0.0 | 0.00 | 0.02 | 0.00 | 1018.8 | ||
| 20260902093958 | 0 | 0.0 | 0.0 | 0.00 | 0.02 | 0.00 | 1018.9 | ||
| 20260902093458 | 0 | 0.0 | 0.0 | 0.00 | 0.02 | 0.00 | 1019.0 | ||
| 20260902092959 | 0 | 0.0 | 0.0 | 0.00 | 0.02 | 0.00 | 1018.9 | ||
| 20260902092458 | 0 | 0.0 | 0.0 | 0.00 | 0.02 | 0.00 | 1018.9 | ||
| 20260902091958 | 0 | 0.0 | 0.0 | 0.00 | 0.02 | 0.00 | 1018.7 | ||
| 20260902090958 | 69 | 50 | 4.0 | 9.0 | 0.00 | 0.02 | 0.00 | 98 | 1018.6 |
| 20260902090458 | 69 | 50 | 4.0 | 9.0 | 0.00 | 0.02 | 0.00 | 98 | 1018.6 |
| 20260902085959 | 70 | 50 | 4.0 | 9.0 | 0.00 | 0.02 | 0.00 | 98 | 1018.7 |
| 20260902085508 | 70 | 50 | 3.0 | 9.0 | 0.00 | 0.02 | 0.00 | 98 | 1018.6 |
| 20260902084958 | 70 | 50 | 2.0 | 5.0 | 0.00 | 0.02 | 0.00 | 98 | 1018.6 |
| 20260902084459 | 70 | 50 | 1.0 | 5.0 | 0.00 | 0.02 | 0.00 | 99 | 1018.4 |
| 20260902083458 | 70 | 50 | 2.0 | 4.0 | 0.00 | 0.02 | 0.00 | 99 | 1018.2 |
| 20260902082959 | 70 | 50 | 2.0 | 4.0 | 0.00 | 0.02 | 0.00 | 99 | 1018.2 |
| 20260902082458 | 70 | 50 | 1.0 | 4.0 | 0.00 | 0.02 | 0.00 | 99 | 1018.1 |
| 20260902080958 | 70 | 50 | 0.0 | 1.0 | 0.00 | 0.02 | 0.00 | 99 | 1018.0 |
| 20260902080458 | 70 | 50 | 0.0 | 0.0 | 0.00 | 0.02 | 0.00 | 99 | 1017.9 |
| 20260902075959 | 70 | 50 | 0.0 | 0.0 | 0.00 | 0.02 | 0.00 | 99 | 1017.9 |
| 20260902074958 | 70 | 50 | 0.0 | 0.0 | 0.00 | 0.02 | 0.00 | 99 | 1017.8 |
| 20260902074459 | 70 | 50 | 0.0 | 0.0 | 0.00 | 0.02 | 0.00 | 99 | 1017.9 |
| 20260902073958 | 70 | 50 | 0.0 | 0.0 | 0.00 | 0.02 | 0.00 | 99 | 1017.8 |
| 20260902073458 | 70 | 50 | 0.0 | 0.0 | 0.00 | 0.02 | 0.00 | 99 | 1017.7 |
| 20260902072959 | 70 | 50 | 0.0 | 0.0 | 0.00 | 0.02 | 0.00 | 99 | 1017.8 |
| 20260902072458 | 70 | 50 | 0.0 | 0.0 | 0.00 | 0.02 | 0.00 | 99 | 1017.7 |
| 20260902071958 | 70 | 50 | 0.0 | 3.0 | 0.00 | 0.02 | 0.00 | 99 | 1017.7 |
| 20260902070958 | 70 | 50 | 1.0 | 3.0 | 0.00 | 0.02 | 0.00 | 99 | 1017.8 |
| 20260902070458 | 69 | 50 | 1.0 | 3.0 | 0.00 | 0.02 | 0.00 | 99 | 1017.8 |
| 20260902070001 | 69 | 50 | 0.0 | 3.0 | 0.00 | 0.02 | 0.00 | 99 | 1017.8 |
| 20260902065459 | 69 | 50 | 0.0 | 0.0 | 0.00 | 0.02 | 0.00 | 99 | 1017.8 |
| 20260902064959 | 69 | 50 | 0.0 | 0.0 | 0.00 | 0.02 | 0.00 | 99 | 1017.8 |
| 20260902064500 | 69 | 50 | 0.0 | 0.0 | 0.00 | 0.02 | 0.00 | 98 | 1017.8 |
| 20260902063959 | 69 | 50 | 0.0 | 0.0 | 0.00 | 0.02 | 0.00 | 98 | 1017.8 |
| 20260902063459 | 69 | 50 | 0.0 | 0.0 | 0.00 | 0.02 | 0.00 | 99 | 1017.9 |
| 20260902063000 | 68 | 50 | 0.0 | 0.0 | 0.00 | 0.02 | 0.00 | 98 | 1017.8 |
| 20260902062459 | 68 | 50 | 0.0 | 0.0 | 0.00 | 0.02 | 0.00 | 98 | 1017.9 |
| 20260902061959 | 68 | 50 | 0.0 | 0.0 | 0.00 | 0.02 | 0.00 | 98 | 1018.0 |
| 20260902061500 | 68 | 50 | 0.0 | 0.0 | 0.00 | 0.02 | 0.00 | 98 | 1017.9 |
| 20260902060959 | 68 | 50 | 0.0 | 0.0 | 0.00 | 0.02 | 0.00 | 98 | 1018.0 |
| 20260902060000 | 69 | 50 | 0.0 | 0.0 | 0.00 | 0.02 | 0.00 | 98 | 1018.1 |
| 20260902055459 | 69 | 50 | 0.0 | 0.0 | 0.00 | 0.02 | 0.00 | 98 | 1018.2 |
| 20260902054959 | 69 | 50 | 0.0 | 3.0 | 0.00 | 0.02 | 0.00 | 98 | 1018.3 |
| 20260902054500 | 68 | 50 | 0.0 | 3.0 | 0.00 | 0.02 | 0.00 | 98 | 1018.3 |
| 20260902053959 | 68 | 50 | 0.0 | 0.0 | 0.00 | 0.02 | 0.00 | 98 | 1018.2 |
| 20260902053459 | 68 | 50 | 0.0 | 0.0 | 0.00 | 0.02 | 0.00 | 98 | 1018.0 |
| 20260902053000 | 68 | 50 | 0.0 | 0.0 | 0.00 | 0.02 | 0.00 | 98 | 1018.0 |
| 20260902051959 | 69 | 50 | 0.0 | 0.0 | 0.00 | 0.02 | 0.00 | 98 | 1018.2 |
| 20260902051500 | 68 | 50 | 0.0 | 0.0 | 0.00 | 0.02 | 0.00 | 98 | 1018.1 |
| 20260902050959 | 68 | 50 | 1.0 | 3.0 | 0.00 | 0.02 | 0.00 | 98 | 1018.1 |
| 20260902050459 | 68 | 50 | 1.0 | 3.0 | 0.00 | 0.02 | 0.00 | 98 | 1018.1 |
| 20260902045459 | 69 | 50 | 0.0 | 0.0 | 0.00 | 0.02 | 0.00 | 98 | 1018.0 |
| 20260902044959 | 69 | 50 | 0.0 | 0.0 | 0.00 | 0.02 | 0.00 | 98 | 1018.0 |
| 20260902044500 | 69 | 50 | 0.0 | 0.0 | 0.00 | 0.02 | 0.00 | 98 | 1018.0 |
| 20260902043959 | 69 | 50 | 0.0 | 0.0 | 0.00 | 0.02 | 0.00 | 98 | 1018.0 |
| 20260902043459 | 69 | 50 | 0.0 | 0.0 | 0.00 | 0.02 | 0.00 | 98 | 1017.9 |
| 20260902043000 | 69 | 50 | 0.0 | 0.0 | 0.00 | 0.02 | 0.00 | 98 | 1018.0 |
| 20260902042459 | 69 | 50 | 0.0 | 0.0 | 0.00 | 0.02 | 0.00 | 98 | 1018.0 |
| 20260902041959 | 69 | 50 | 0.0 | 0.0 | 0.00 | 0.02 | 0.00 | 98 | 1018.1 |
| 20260902041501 | 69 | 50 | 0.0 | 2.0 | 0.00 | 0.02 | 0.00 | 98 | 1017.9 |
| 20260902040000 | 69 | 50 | 0.0 | 3.0 | 0.00 | 0.02 | 0.02 | 98 | 1017.8 |
| 20260902035459 | 70 | 50 | 0.0 | 3.0 | 0.00 | 0.02 | 0.02 | 98 | 1017.7 |
| 20260902034959 | 70 | 50 | 0.0 | 0.0 | 0.00 | 0.02 | 0.02 | 98 | 1017.7 |
| 20260902034500 | 70 | 50 | 0.0 | 0.0 | 0.00 | 0.02 | 0.02 | 98 | 1017.6 |
| 20260902033959 | 70 | 50 | 0.0 | 3.0 | 0.00 | 0.02 | 0.02 | 98 | 1017.6 |
| 20260902033459 | 70 | 50 | 1.0 | 4.0 | 0.00 | 0.02 | 0.02 | 98 | 1017.6 |
| 20260902033000 | 69 | 50 | 2.0 | 6.0 | 0.00 | 0.02 | 0.02 | 98 | 1017.4 |
| 20260902032459 | 69 | 50 | 2.0 | 6.0 | 0.00 | 0.02 | 0.02 | 98 | 1017.3 |
| 20260902031959 | 69 | 50 | 2.0 | 4.0 | 0.00 | 0.02 | 0.02 | 98 | 1017.1 |
| 20260902031500 | 69 | 50 | 2.0 | 4.0 | 0.00 | 0.02 | 0.02 | 98 | 1016.8 |
| 20260902030959 | 69 | 50 | 1.0 | 4.0 | 0.00 | 0.02 | 0.02 | 98 | 1016.7 |
| 20260902030459 | 69 | 50 | 0.0 | 1.0 | 0.00 | 0.02 | 0.02 | 97 | 1016.5 |
| 20260902024959 | 69 | 50 | 2.0 | 5.0 | 0.00 | 0.03 | 0.02 | 97 | 1016.4 |
| 20260902024500 | 69 | 50 | 2.0 | 5.0 | 0.00 | 0.03 | 0.02 | 97 | 1016.3 |
| 20260902023959 | 69 | 50 | 0.0 | 4.0 | 0.00 | 0.03 | 0.02 | 97 | 1016.1 |
| 20260902023459 | 69 | 50 | 0.0 | 0.0 | 0.00 | 0.03 | 0.02 | 97 | 1015.9 |
| 20260902023000 | 69 | 50 | 0.0 | 0.0 | 0.00 | 0.03 | 0.02 | 97 | 1015.8 |
| 20260902022459 | 69 | 50 | 0.0 | 0.0 | 0.00 | 0.03 | 0.02 | 97 | 1015.8 |
| 20260902021959 | 70 | 50 | 0.0 | 2.0 | 0.00 | 0.03 | 0.02 | 97 | 1015.8 |
| 20260902021500 | 70 | 50 | 1.0 | 5.0 | 0.00 | 0.03 | 0.02 | 97 | 1015.6 |
| 20260902020959 | 70 | 50 | 2.0 | 5.0 | 0.00 | 0.03 | 0.02 | 97 | 1015.6 |
| 20260902020459 | 70 | 50 | 1.0 | 4.0 | 0.00 | 0.03 | 0.02 | 97 | 1015.8 |
| 20260902020000 | 70 | 50 | 0.0 | 0.0 | 0.00 | 0.03 | 0.02 | 97 | 1015.6 |
| 20260902014959 | 70 | 50 | 0.0 | 0.0 | 0.00 | 0.03 | 0.02 | 96 | 1015.5 |
| 20260902014500 | 70 | 50 | 0.0 | 0.0 | 0.00 | 0.03 | 0.02 | 96 | 1015.1 |
| 20260902013959 | 70 | 50 | 0.0 | 0.0 | 0.00 | 0.03 | 0.02 | 96 | 1015.1 |
| 20260902013459 | 70 | 50 | 0.0 | 0.0 | 0.00 | 0.03 | 0.02 | 96 | 1015.1 |
| 20260902012459 | 70 | 50 | 1.0 | 3.0 | 0.00 | 0.03 | 0.02 | 96 | 1015.2 |
| 20260902011959 | 70 | 50 | 2.0 | 5.0 | 0.00 | 0.03 | 0.02 | 96 | 1015.1 |
| 20260902010959 | 70 | 50 | 3.0 | 6.0 | 0.01 | 0.03 | 0.02 | 96 | 1015.5 |
| 20260902010000 | 71 | 50 | 1.0 | 4.0 | 0.02 | 0.03 | 0.02 | 95 | 1015.9 |
| 20260902004959 | 71 | 50 | 3.0 | 10.0 | 0.02 | 0.03 | 0.02 | 95 | 1016.1 |
| 20260902003959 | 71 | 50 | 2.0 | 5.0 | 0.02 | 0.03 | 0.02 | 95 | 1016.1 |
| 20260902002459 | 71 | 50 | 2.0 | 5.0 | 0.02 | 0.03 | 0.02 | 94 | 1015.5 |
| 20260902001959 | 71 | 50 | 1.0 | 4.0 | 0.02 | 0.03 | 0.02 | 94 | 1015.1 |
| 20260902001500 | 71 | 50 | 0.0 | 3.0 | 0.02 | 0.03 | 0.02 | 94 | 1014.9 |
| 20260902000959 | 71 | 50 | 0.0 | 3.0 | 0.01 | 0.02 | 0.01 | 93 | 1014.9 |
| 20260902000459 | 71 | 50 | 2.0 | 9.0 | 0.01 | 0.02 | 0.01 | 93 | 1014.8 |
| 20260902000000 | 71 | 50 | 5.0 | 14.0 | 0.00 | 0.01 | 0.00 | 93 | 1015.0 |
| 20260901235459 | 71 | 50 | 8.0 | 14.0 | 0.00 | 0.01 | 0.00 | 93 | 1014.9 |
| 20260901234959 | 71 | 50 | 9.0 | 22.0 | 0.00 | 0.01 | 0.00 | 92 | 1014.9 |
| 20260901234500 | 72 | 50 | 9.0 | 22.0 | 0.00 | 0.01 | 0.00 | 93 | 1015.3 |
| 20260901233959 | 72 | 50 | 4.0 | 22.0 | 0.00 | 0.01 | 0.00 | 92 | 1015.9 |
| 20260901233459 | 0 | 50 | 9.0 | 9.0 | 0.00 | 0.01 | 0.00 | 91 | 1015.6 |
| 20260901232459 | 0 | 0.0 | 0.0 | 0.00 | 0.01 | 0.00 | |||
| 20260901231959 | 0 | 0.0 | 0.0 | 0.00 | 0.01 | 0.00 | |||
| 20260901231459 | 0 | 0.0 | 0.0 | 0.00 | 0.01 | 0.00 | |||
| 20260901230959 | 0 | 0.0 | 0.0 | 0.00 | 0.01 | 0.00 | |||
| 20260901230001 | 81 | 273 | 1.0 | 3.0 | 0.00 | 0.01 | 0.00 | 88 | 1013.9 |
| 20260901225500 | 81 | 50 | 2.0 | 4.0 | 0.00 | 0.01 | 0.00 | 87 | 1013.4 |
| 20260901225000 | 81 | 50 | 2.0 | 4.0 | 0.00 | 0.01 | 0.00 | 87 | 1014.0 |
| 20260901224000 | 83 | 148 | 0.0 | 2.0 | 0.00 | 0.01 | 0.00 | 85 | 1013.4 |
| 20260901223500 | 83 | 243 | 1.0 | 3.0 | 0.00 | 0.01 | 0.00 | 82 | 1013.7 |
| 20260901223001 | 83 | 243 | 1.0 | 4.0 | 0.00 | 0.01 | 0.00 | 81 | 1013.9 |
| 20260901222000 | 84 | 243 | 1.0 | 4.0 | 0.00 | 0.01 | 0.00 | 80 | 1013.8 |
| 20260901221501 | 85 | 244 | 0.0 | 1.0 | 0.00 | 0.01 | 0.00 | 82 | 1013.6 |
| 20260901221000 | 85 | 244 | 0.0 | 0.0 | 0.00 | 0.01 | 0.00 | 80 | 1013.7 |
| 20260901220500 | 86 | 244 | 0.0 | 2.0 | 0.00 | 0.01 | 0.00 | 77 | 1013.7 |
| 20260901220001 | 86 | 244 | 0.0 | 2.0 | 0.00 | 0.01 | 0.00 | 77 | 1013.8 |
| 20260901215500 | 87 | 244 | 0.0 | 2.0 | 0.00 | 0.01 | 0.00 | 78 | 1013.8 |
| 20260901215000 | 87 | 244 | 1.0 | 2.0 | 0.00 | 0.01 | 0.00 | 77 | 1013.9 |
| 20260901214501 | 87 | 244 | 1.0 | 2.0 | 0.00 | 0.01 | 0.00 | 79 | 1013.5 |
| 20260901214000 | 86 | 244 | 1.0 | 2.0 | 0.00 | 0.01 | 0.00 | 79 | 1013.6 |
| 20260901213001 | 86 | 244 | 2.0 | 4.0 | 0.00 | 0.01 | 0.00 | 78 | 1013.9 |
| 20260901212502 | 86 | 244 | 3.0 | 7.0 | 0.00 | 0.01 | 0.00 | 76 | 1013.8 |
| 20260901212000 | 87 | 241 | 3.0 | 7.0 | 0.00 | 0.01 | 0.00 | 77 | 1013.9 |
| 20260901211501 | 87 | 272 | 3.0 | 5.0 | 0.00 | 0.01 | 0.00 | 74 | 1014.1 |
| 20260901211000 | 87 | 239 | 3.0 | 5.0 | 0.00 | 0.01 | 0.00 | 76 | 1013.9 |
| 20260901210001 | 87 | 207 | 3.0 | 5.0 | 0.00 | 0.01 | 0.00 | 77 | 1013.7 |
| 20260901205000 | 87 | 209 | 3.0 | 6.0 | 0.00 | 0.01 | 0.00 | 79 | 1013.8 |
| 20260901204000 | 86 | 204 | 4.0 | 6.0 | 0.00 | 0.01 | 0.00 | 79 | 1013.9 |
| 20260901203500 | 87 | 217 | 4.0 | 6.0 | 0.00 | 0.01 | 0.00 | 77 | 1014.0 |
| 20260901203001 | 87 | 250 | 4.0 | 8.0 | 0.00 | 0.01 | 0.00 | 81 | 1014.0 |
| 20260901202500 | 86 | 215 | 4.0 | 8.0 | 0.00 | 0.01 | 0.00 | 80 | 1014.1 |
| 20260901202000 | 86 | 200 | 4.0 | 7.0 | 0.00 | 0.01 | 0.00 | 80 | 1014.2 |
| 20260901201501 | 86 | 217 | 4.0 | 7.0 | 0.00 | 0.01 | 0.00 | 79 | 1014.2 |
| 20260901200500 | 85 | 217 | 3.0 | 7.0 | 0.00 | 0.01 | 0.00 | 80 | 1014.2 |
| 20260901200005 | 85 | 246 | 2.0 | 5.0 | 0.00 | 0.01 | 0.00 | 82 | 1014.3 |
| 20260901195500 | 84 | 238 | 1.0 | 4.0 | 0.00 | 0.01 | 0.00 | 82 | 1014.2 |
| 20260901195000 | 85 | 239 | 2.0 | 4.0 | 0.00 | 0.01 | 0.00 | 81 | 1014.3 |
| 20260901194000 | 85 | 230 | 3.0 | 6.0 | 0.00 | 0.01 | 0.00 | 83 | 1014.4 |
| 20260901193500 | 84 | 225 | 4.0 | 8.0 | 0.00 | 0.01 | 0.00 | 83 | 1014.4 |
| 20260901193001 | 84 | 246 | 4.0 | 8.0 | 0.00 | 0.01 | 0.00 | 83 | 1014.5 |
| 20260901192500 | 84 | 236 | 4.0 | 8.0 | 0.00 | 0.01 | 0.00 | 82 | 1014.5 |
| 20260901192000 | 84 | 259 | 4.0 | 7.0 | 0.00 | 0.01 | 0.00 | 81 | 1014.6 |
| 20260901191501 | 84 | 200 | 5.0 | 9.0 | 0.00 | 0.01 | 0.00 | 81 | 1014.5 |
| 20260901191000 | 84 | 232 | 5.0 | 9.0 | 0.00 | 0.01 | 0.00 | 81 | 1014.6 |
| 20260901190500 | 84 | 252 | 5.0 | 10.0 | 0.00 | 0.01 | 0.00 | 81 | 1014.7 |
| 20260901190001 | 83 | 296 | 5.0 | 10.0 | 0.00 | 0.01 | 0.00 | 82 | 1014.8 |
| 20260901185500 | 83 | 226 | 3.0 | 8.0 | 0.00 | 0.01 | 0.00 | 83 | 1014.7 |
| 20260901185000 | 83 | 248 | 2.0 | 5.0 | 0.00 | 0.01 | 0.00 | 82 | 1014.6 |
| 20260901184501 | 83 | 204 | 3.0 | 6.0 | 0.00 | 0.01 | 0.00 | 81 | 1014.5 |
| 20260901183500 | 84 | 186 | 4.0 | 8.0 | 0.00 | 0.01 | 0.00 | 80 | 1014.6 |
| 20260901183001 | 85 | 234 | 5.0 | 9.0 | 0.00 | 0.01 | 0.00 | 80 | 1014.6 |
| 20260901182500 | 85 | 225 | 5.0 | 10.0 | 0.00 | 0.01 | 0.00 | 80 | 1014.7 |
| 20260901182000 | 85 | 242 | 6.0 | 10.0 | 0.00 | 0.01 | 0.00 | 83 | 1014.6 |
| 20260901181501 | 84 | 209 | 6.0 | 11.0 | 0.00 | 0.01 | 0.00 | 82 | 1014.6 |
| 20260901181000 | 84 | 196 | 6.0 | 11.0 | 0.00 | 0.01 | 0.00 | 81 | 1014.7 |
| 20260901180500 | 84 | 226 | 5.0 | 11.0 | 0.00 | 0.01 | 0.00 | 82 | 1014.8 |
| 20260901180001 | 84 | 248 | 5.0 | 12.0 | 0.00 | 0.01 | 0.00 | 82 | 1014.9 |
| 20260901175500 | 83 | 251 | 6.0 | 12.0 | 0.00 | 0.01 | 0.00 | 81 | 1014.8 |
| 20260901175000 | 84 | 201 | 5.0 | 11.0 | 0.00 | 0.01 | 0.00 | 82 | 1014.8 |
| 20260901174501 | 83 | 195 | 6.0 | 12.0 | 0.00 | 0.01 | 0.00 | 82 | 1014.8 |